K4AVM-13 Weather Reports


time (UTC)temp
F
wind
direction
speed
knots
gust
knots
rain 1hr
in
rain 24hr
in
rain mn
in
humidity
%
barometer
mb
20260906193017 85 268 1.7 7.0 0.00 0.00 0.00 53 1015.2
20260906192512 86 152 2.6 2.6 0.00 0.00 0.00 51 1015.3
20260906192011 85 337 1.7 2.6 0.00 0.00 0.00 51 1015.2
20260906191506 85 101 1.7 1.7 0.00 0.00 0.00 53 1015.2
20260906191005 85 33 0.9 7.0 0.00 0.00 0.00 52 1015.3
20260906190505 84 250 0.0 0.9 0.00 0.00 0.00 53 1015.4
20260906185959 84 24 3.5 7.0 0.00 0.00 0.00 52 1015.7
20260906185458 83 351 0.9 2.6 0.00 0.00 0.00 54 1015.7
20260906184957 83 14 3.5 3.5 0.00 0.00 0.00 54 1015.6
20260906184453 86 316 1.7 2.6 0.00 0.00 0.00 54 1015.9
20260906183948 86 311 0.9 2.6 0.00 0.00 0.00 53 1015.5
20260906183439 85 129 0.9 2.6 0.00 0.00 0.00 54 1015.6
20260906182934 84 259 1.7 3.5 0.00 0.00 0.00 54 1015.7
20260906182430 85 311 0.0 1.7 0.00 0.00 0.00 54 1015.7
20260906181925 84 335 1.7 3.5 0.00 0.00 0.00 53 1015.8
20260906181421 85 259 0.0 1.7 0.00 0.00 0.00 53 1015.8
20260906180916 84 156 1.7 1.7 0.00 0.00 0.00 54 1015.7
20260906180406 84 333 0.9 3.5 0.00 0.00 0.00 53 1015.7
20260906175904 83 98 0.9 1.7 0.00 0.00 0.00 55 1015.8
20260906175358 83 260 0.0 0.9 0.00 0.00 0.00 56 1015.8
20260906174857 86 242 0.9 0.9 0.00 0.00 0.00 55 1015.9
20260906174357 84 8 1.7 3.5 0.00 0.00 0.00 54 1015.8
20260906173852 84 353 3.5 5.2 0.00 0.00 0.00 52 1015.7
20260906173348 83 354 2.6 6.1 0.00 0.00 0.00 52 1015.8
20260906172846 83 254 0.0 2.6 0.00 0.00 0.00 55 1015.9
20260906172343 85 3 3.5 6.1 0.00 0.00 0.00 52 1015.9
20260906171837 84 281 0.0 1.7 0.00 0.00 0.00 57 1016.0
20260906171332 83 19 1.7 3.5 0.00 0.00 0.00 54 1016.1
20260906170827 82 341 1.7 5.2 0.00 0.00 0.00 56 1016.1
20260906170323 84 345 0.0 2.6 0.00 0.00 0.00 56 1016.0
20260906165820 83 70 0.9 2.6 0.00 0.00 0.00 54 1015.8
20260906165314 84 323 0.9 3.5 0.00 0.00 0.00 56 1015.9
20260906164813 82 233 1.7 3.5 0.00 0.00 0.00 55 1016.0
20260906164308 83 332 4.3 6.1 0.00 0.00 0.00 56 1016.0
20260906163804 82 311 0.9 2.6 0.00 0.00 0.00 58 1016.2
20260906163301 82 355 2.6 6.1 0.00 0.00 0.00 55 1016.1
20260906162757 82 333 1.7 5.2 0.00 0.00 0.00 55 1016.1
20260906162251 83 227 0.0 2.6 0.00 0.00 0.00 55 1016.3
20260906161746 83 4 3.5 5.2 0.00 0.00 0.00 54 1016.4
20260906161245 82 315 0.9 8.7 0.00 0.00 0.00 55 1016.3
20260906160744 83 77 1.7 3.5 0.00 0.00 0.00 55 1016.3
20260906160244 82 316 0.9 2.6 0.00 0.00 0.00 57 1016.3
20260906155741 82 268 1.7 2.6 0.00 0.00 0.00 57 1016.4
20260906155236 83 321 1.7 5.2 0.00 0.00 0.00 58 1016.5
20260906154732 83 252 0.0 1.7 0.00 0.00 0.00 60 1016.5
20260906154227 82 345 1.7 2.6 0.00 0.00 0.00 60 1016.5
20260906153725 81 265 0.9 3.5 0.00 0.00 0.00 64 1016.5
20260906153219 82 356 0.0 0.9 0.00 0.00 0.00 67 1016.4
20260906152709 81 49 0.0 0.9 0.00 0.00 0.00 68 1016.4
20260906152203 80 285 0.0 1.7 0.00 0.00 0.00 69 1016.4
20260906151657 80 275 0.9 2.6 0.00 0.00 0.00 66 1016.4
20260906151154 80 300 2.6 3.5 0.00 0.00 0.00 67 1016.4
20260906150649 80 284 0.9 3.5 0.00 0.00 0.00 67 1016.5
20260906150144 81 304 0.0 0.9 0.00 0.00 0.00 68 1016.2
20260906145643 79 305 0.9 2.6 0.00 0.00 0.00 70 1016.3
20260906145137 80 257 0.9 2.6 0.00 0.00 0.00 68 1016.3
20260906144632 80 280 0.0 0.9 0.00 0.00 0.00 70 1016.3
20260906144127 80 262 0.9 1.7 0.00 0.00 0.00 76 1016.2
20260906143626 81 77 0.9 2.6 0.00 0.00 0.00 70 1016.2
20260906143124 80 158 0.9 1.7 0.00 0.00 0.00 72 1016.1
20260906142623 79 274 0.0 1.7 0.00 0.00 0.00 76 1016.2
20260906142118 78 257 0.9 2.6 0.00 0.00 0.00 77 1016.2
20260906141617 78 10 1.7 3.5 0.00 0.00 0.00 76 1016.3
20260906141113 78 338 3.5 5.2 0.00 0.00 0.00 78 1016.2
20260906140612 79 348 3.5 3.5 0.00 0.00 0.00 74 1016.1
20260906140107 79 10 0.0 0.9 0.00 0.00 0.00 76 1016.1
20260906135604 77 97 0.0 1.7 0.00 0.00 0.00 77 1016.2
20260906135100 77 24 0.0 2.6 0.00 0.00 0.00 79 1016.0
20260906134555 76 313 0.0 1.7 0.00 0.00 0.00 80 1015.8
20260906134054 75 291 1.7 1.7 0.00 0.00 0.00 85 1015.7
20260906133550 74 2 0.0 1.7 0.00 0.00 0.00 87 1015.8
20260906133046 73 339 2.6 2.6 0.00 0.00 0.00 88 1015.7
20260906132541 72 305 1.7 2.6 0.00 0.00 0.00 90 1015.6
20260906132036 72 330 0.9 0.9 0.00 0.00 0.00 91 1015.9
20260906131532 72 257 0.0 2.6 0.00 0.00 0.00 91 1015.9
20260906131027 72 314 0.0 1.7 0.00 0.00 0.00 92 1015.9
20260906130526 72 318 0.9 1.7 0.00 0.00 0.00 91 1016.0
20260906130022 72 279 1.7 2.6 0.00 0.00 0.00 91 1016.0
20260906125519 72 322 0.0 1.7 0.00 0.00 0.00 91 1015.9
20260906125013 72 287 0.0 1.7 0.00 0.00 0.00 91 1016.0
20260906124509 72 268 0.0 1.7 0.00 0.00 0.00 91 1016.0
20260906124003 72 274 1.7 2.6 0.00 0.00 0.00 90 1016.1
20260906123456 72 299 0.0 1.7 0.00 0.00 0.00 90 1016.1
20260906122951 73 300 0.0 3.5 0.00 0.00 0.00 89 1015.9
20260906122446 73 330 0.0 1.7 0.00 0.00 0.00 89 1015.9
20260906121942 73 314 0.0 1.7 0.00 0.00 0.00 88 1015.6
20260906121438 74 302 0.0 1.7 0.00 0.00 0.00 88 1015.6
20260906120935 72 337 0.0 0.9 0.00 0.00 0.00 90 1015.4
20260906120430 72 254 0.0 1.7 0.00 0.00 0.00 91 1015.4
20260906115925 71 35 1.7 2.6 0.00 0.00 0.00 92 1015.5
20260906115421 70 8 0.9 1.7 0.00 0.00 0.00 94 1015.2
20260906114915 70 328 0.9 0.9 0.00 0.00 0.00 95 1015.3
20260906114410 70 327 0.0 0.9 0.00 0.00 0.00 95 1015.2
20260906113906 70 279 0.0 0.9 0.00 0.00 0.00 95 1015.2
20260906113404 70 339 1.7 1.7 0.00 0.00 0.00 96 1015.0
20260906112900 70 281 0.9 0.9 0.00 0.00 0.00 96 1014.9
20260906112355 70 305 0.0 0.9 0.00 0.00 0.00 96 1014.9
20260906111850 70 38 0.0 0.9 0.00 0.00 0.00 97 1014.9
20260906111349 70 337 0.0 0.0 0.00 0.00 0.00 97 1015.1
20260906110844 70 0 0.9 0.9 0.00 0.00 0.00 97 1014.8
20260906110340 70 285 0.0 0.0 0.00 0.00 0.00 98 1014.7
20260906105839 70 266 0.0 0.0 0.00 0.00 0.00 98 1014.7
20260906105335 70 274 0.0 0.0 0.00 0.00 0.00 98 1014.7
20260906104831 70 269 0.0 0.0 0.00 0.00 0.00 98 1014.6
20260906104329 70 297 0.9 0.9 0.00 0.00 0.00 98 1014.7
20260906103828 70 288 0.0 0.0 0.00 0.00 0.00 98 1014.4
20260906103326 70 278 0.0 0.0 0.00 0.00 0.00 98 1014.4
20260906102823 70 280 0.0 0.0 0.00 0.00 0.00 98 1014.3
20260906102321 70 265 0.0 0.0 0.00 0.00 0.00 98 1014.2
20260906101817 70 335 0.9 2.6 0.00 0.00 0.00 99 1014.2
20260906101312 70 326 0.0 0.9 0.00 0.00 0.00 99 1013.9
20260906100808 70 279 0.0 0.0 0.00 0.00 0.00 99 1013.9
20260906100306 70 284 0.0 0.0 0.00 0.00 0.00 99 1014.2
20260906095802 70 314 0.0 1.7 0.00 0.00 0.00 99 1013.8
20260906095257 70 279 0.0 0.0 0.00 0.00 0.00 99 1013.8
20260906094756 70 301 0.0 0.0 0.00 0.00 0.00 99 1014.0
20260906094251 70 277 0.0 0.0 0.00 0.00 0.00 99 1013.8
20260906093748 70 277 0.0 0.0 0.00 0.00 0.00 99 1013.9
20260906093243 70 276 0.0 0.0 0.00 0.00 0.00 99 1013.8
20260906092738 70 326 0.0 0.0 0.00 0.00 0.00 99 1013.8
20260906092238 71 284 0.0 0.0 0.00 0.00 0.00 99 1013.7
20260906091733 71 310 0.0 0.0 0.00 0.00 0.00 99 1013.8
20260906091230 71 301 0.0 0.0 0.00 0.00 0.00 99 1013.7
20260906090726 71 286 0.0 0.0 0.00 0.00 0.00 99 1013.7
20260906090225 71 281 0.0 0.0 0.00 0.00 0.00 99 1013.7
20260906085724 71 289 0.0 0.0 0.00 0.00 0.00 99 1013.6
20260906085223 71 273 0.0 0.0 0.00 0.00 0.00 99 1013.5
20260906084718 71 273 0.0 0.0 0.00 0.00 0.00 99 1013.3
20260906084212 71 273 0.0 0.0 0.00 0.00 0.00 99 1013.4
20260906083708 71 265 0.0 0.0 0.00 0.00 0.00 99 1013.4
20260906083158 71 274 0.0 0.0 0.00 0.00 0.00 99 1013.6
20260906082652 71 321 0.0 0.0 0.00 0.00 0.00 99 1013.5
20260906082148 71 300 0.0 0.0 0.00 0.00 0.00 99 1013.4
20260906081643 71 288 0.0 0.0 0.00 0.00 0.00 99 1013.3
20260906081138 71 339 0.9 1.7 0.00 0.00 0.00 99 1013.3
20260906080635 71 280 0.0 0.0 0.00 0.00 0.00 99 1013.4
20260906080131 71 288 0.0 0.9 0.00 0.00 0.00 99 1013.4
20260906075630 71 315 0.0 0.0 0.00 0.00 0.00 99 1013.4
20260906075125 71 331 0.9 1.7 0.00 0.00 0.00 99 1013.3
20260906074621 71 277 0.0 0.0 0.00 0.00 0.00 99 1013.3
20260906074119 71 281 0.0 0.0 0.00 0.00 0.00 99 1013.2
20260906073614 71 285 0.0 0.0 0.00 0.00 0.00 99 1013.0
20260906073110 71 264 0.0 0.0 0.00 0.00 0.00 99 1013.2
20260906072605 71 264 0.0 0.0 0.00 0.00 0.00 99 1013.2
20260906072101 71 265 0.0 0.0 0.00 0.00 0.00 99 1013.0
20260906071557 71 274 0.0 0.0 0.00 0.00 0.00 99 1012.9
20260906071051 71 290 0.0 0.0 0.00 0.00 0.00 99 1012.9
20260906070548 71 272 0.0 0.0 0.00 0.00 0.00 99 1013.0
20260906070043 71 310 0.0 0.0 0.00 0.00 0.00 99 1013.2
20260906065542 72 276 0.0 0.0 0.00 0.00 0.00 99 1012.8
20260906065039 72 278 0.0 0.0 0.00 0.00 0.00 99 1012.9
20260906064534 72 257 0.0 0.9 0.00 0.00 0.00 99 1013.0
20260906064029 72 280 0.0 0.0 0.00 0.00 0.00 99 1013.0
20260906063524 72 269 0.0 0.0 0.00 0.00 0.00 99 1013.0
20260906063020 71 287 0.0 0.9 0.00 0.00 0.00 99 1013.1
20260906062509 71 276 0.0 0.0 0.00 0.00 0.00 99 1013.2
20260906062004 71 277 0.0 0.0 0.00 0.00 0.00 99 1012.9
20260906061500 71 283 0.0 0.0 0.00 0.00 0.00 99 1013.2
20260906060954 71 291 0.0 0.0 0.00 0.00 0.00 99 1013.1
20260906060451 71 277 0.0 0.9 0.00 0.00 0.00 99 1013.2
20260906055947 71 286 0.0 0.0 0.00 0.00 0.00 99 1013.2
20260906055443 71 289 0.0 0.0 0.00 0.00 0.00 99 1013.2
20260906054938 71 281 0.0 0.0 0.00 0.00 0.00 99 1013.5
20260906054433 72 279 0.0 0.0 0.00 0.00 0.00 99 1013.4
20260906053928 72 294 0.0 0.0 0.00 0.00 0.00 99 1013.3
20260906053424 72 296 0.0 0.0 0.00 0.00 0.00 99 1013.4
20260906052920 72 274 0.0 0.0 0.00 0.00 0.00 99 1013.3
20260906052416 72 267 0.0 0.0 0.00 0.00 0.00 99 1013.5
20260906051913 72 276 0.0 0.0 0.00 0.00 0.00 99 1013.5
20260906051413 72 303 0.0 0.0 0.00 0.00 0.00 99 1013.4
20260906050908 72 344 0.0 0.9 0.00 0.00 0.00 99 1013.4
20260906050403 72 340 0.0 0.0 0.00 0.00 0.00 99 1013.5
20260906045902 72 10 0.0 0.9 0.00 0.00 0.00 99 1013.6
20260906045401 71 294 0.0 1.7 0.00 0.00 0.00 99 1013.6
20260906044857 71 288 0.0 0.0 0.00 0.00 0.00 99 1013.6
20260906044351 71 283 0.0 0.0 0.00 0.00 0.00 99 1013.7
20260906043847 71 277 0.0 0.0 0.00 0.00 0.00 99 1013.7
20260906043343 71 283 0.0 1.7 0.00 0.00 0.00 99 1013.6
20260906042838 71 278 0.0 0.0 0.00 0.00 0.00 99 1013.8
20260906042337 71 278 0.0 0.0 0.00 0.00 0.00 99 1013.8
20260906041832 71 269 0.0 0.0 0.00 0.00 0.00 99 1013.8
20260906041329 71 279 0.0 0.0 0.00 0.00 0.00 99 1013.5
20260906040828 71 276 0.0 0.0 0.00 0.00 0.00 99 1013.3
20260906040323 71 276 0.0 0.0 0.00 0.00 0.00 99 1013.6
20260906035819 71 267 0.0 0.0 0.00 0.42 0.42 99 1013.7
20260906035314 71 266 0.0 0.0 0.00 0.42 0.42 99 1013.8
20260906034809 71 267 0.0 0.0 0.00 0.42 0.42 99 1013.7
20260906034309 71 264 0.0 0.0 0.00 0.42 0.42 99 1013.7
20260906033805 71 264 0.0 0.0 0.00 0.42 0.42 99 1013.9
20260906033304 71 274 0.0 0.0 0.00 0.42 0.42 99 1013.7
20260906032801 71 272 0.0 0.0 0.00 0.42 0.42 99 1013.8
20260906032256 71 270 0.0 0.0 0.00 0.42 0.42 99 1013.9
20260906031751 71 279 0.0 0.0 0.00 0.42 0.42 99 1013.8
20260906031247 71 286 0.0 0.0 0.00 0.42 0.42 99 1013.8
20260906030746 71 275 0.0 0.0 0.00 0.42 0.42 99 1013.7
20260906030242 71 258 0.0 0.0 0.00 0.42 0.42 99 1013.9
20260906025741 72 259 0.0 0.0 0.00 0.42 0.42 99 1013.9
20260906025235 71 264 0.0 0.0 0.00 0.42 0.42 99 1013.9
20260906024734 72 264 0.0 0.0 0.00 0.42 0.42 99 1013.7
20260906024234 72 274 0.0 0.0 0.00 0.42 0.42 99 1013.7
20260906023730 72 272 0.0 0.0 0.00 0.42 0.42 99 1013.7
20260906023225 72 271 0.0 0.0 0.00 0.42 0.42 99 1013.7
20260906022721 72 277 0.0 0.0 0.00 0.42 0.42 99 1013.6
20260906022216 72 279 0.0 0.0 0.00 0.42 0.42 99 1013.7
20260906021712 72 275 0.0 0.0 0.00 0.42 0.42 99 1013.8
20260906021210 72 275 0.0 0.0 0.00 0.42 0.42 99 1013.6
20260906020705 73 275 0.0 0.0 0.00 0.42 0.42 99 1013.8
20260906020159 73 276 0.0 0.0 0.00 0.42 0.42 99 1013.8
20260906015654 73 276 0.0 0.0 0.00 0.42 0.42 98 1013.7
20260906015152 73 276 0.0 0.0 0.00 0.42 0.42 98 1013.6
20260906014647 73 277 0.0 0.0 0.00 0.42 0.42 98 1013.4
20260906014143 73 276 0.0 0.0 0.00 0.42 0.42 98 1013.5
20260906013638 74 276 0.0 0.0 0.00 0.42 0.42 98 1013.4
20260906013134 74 276 0.0 0.0 0.00 0.42 0.42 98 1013.3
20260906012628 74 276 0.0 0.0 0.00 0.42 0.42 98 1013.4
20260906012123 74 277 0.0 0.0 0.00 0.42 0.42 97 1013.1
20260906011618 74 277 0.0 0.0 0.00 0.42 0.42 97 1013.4
20260906011113 74 277 0.0 0.0 0.00 0.42 0.42 97 1013.3
20260906010608 74 296 0.0 0.0 0.00 0.42 0.42 97 1013.2
20260906010104 74 260 0.0 0.0 0.00 0.42 0.42 96 1013.1
20260906005603 74 262 0.0 0.0 0.00 0.42 0.42 96 1013.0
20260906005102 74 262 0.0 0.0 0.00 0.42 0.42 96 1012.9
20260906004556 74 260 0.0 0.0 0.00 0.42 0.42 96 1012.8
20260906004052 74 259 0.0 0.0 0.00 0.42 0.42 96 1012.7
20260906003547 74 272 0.0 0.0 0.00 0.42 0.42 96 1012.8
20260906003043 75 272 0.0 0.0 0.00 0.42 0.42 96 1012.7
20260906002543 75 256 0.0 0.0 0.00 0.42 0.42 96 1012.4
20260906002037 75 270 0.0 0.0 0.00 0.42 0.42 96 1012.5
20260906001533 75 280 0.0 0.0 0.00 0.42 0.42 95 1012.7
20260906001027 75 277 0.0 0.0 0.00 0.42 0.42 95 1012.4
20260906000524 75 271 0.0 0.0 0.00 0.42 0.42 94 1012.4
20260906000018 75 270 0.0 0.0 0.00 0.42 0.42 94 1012.2
20260905235512 75 259 0.0 0.0 0.00 0.42 0.42 93 1012.0
20260905235007 75 258 0.0 0.0 0.00 0.42 0.42 94 1012.1
20260905234502 75 262 0.0 0.0 0.00 0.42 0.42 92 1012.1
20260905233956 75 265 0.0 0.0 0.00 0.42 0.42 92 1012.0
20260905233452 76 277 0.0 0.0 0.00 0.42 0.42 91 1012.0
20260905232950 76 296 0.0 0.0 0.00 0.42 0.42 91 1011.9
20260905232447 76 273 0.0 0.0 0.00 0.42 0.42 91 1011.8
20260905231943 76 343 0.0 0.0 0.00 0.42 0.42 90 1012.0
20260905231438 76 302 0.0 0.0 0.00 0.42 0.42 90 1012.1
20260905230934 77 273 0.0 0.0 0.00 0.42 0.42 90 1012.2
20260905230433 77 309 0.0 0.0 0.00 0.42 0.42 89 1012.1
20260905225931 77 262 0.0 0.0 0.00 0.42 0.42 88 1012.4
20260905225427 77 274 0.0 0.9 0.00 0.42 0.42 88 1012.3
20260905224921 78 5 0.0 0.9 0.00 0.42 0.42 87 1012.3
20260905224418 78 290 0.9 1.7 0.00 0.42 0.42 87 1012.4
20260905223917 78 288 0.0 0.0 0.00 0.42 0.42 88 1012.2
20260905223415 78 312 0.9 1.7 0.00 0.42 0.42 88 1012.1
20260905222915 78 308 0.0 0.9 0.00 0.42 0.42 89 1012.4
20260905222414 78 254 0.0 0.0 0.00 0.42 0.42 89 1012.3
20260905221910 78 273 0.0 0.0 0.00 0.42 0.42 88 1012.0
20260905221406 78 296 0.0 0.0 0.00 0.42 0.42 88 1012.1
20260905220856 78 290 0.0 0.9 0.00 0.42 0.42 87 1012.2
20260905220352 79 256 0.0 0.0 0.00 0.42 0.42 87 1012.1
20260905215852 79 273 0.0 0.9 0.00 0.42 0.42 86 1011.9
20260905215348 80 263 0.0 0.0 0.00 0.42 0.42 84 1011.8
20260905214844 80 263 0.0 0.0 0.00 0.42 0.42 84 1011.9
20260905214339 80 260 0.0 0.0 0.00 0.42 0.42 85 1012.2
20260905213833 79 271 0.0 0.9 0.00 0.42 0.42 87 1012.2
20260905213330 78 286 0.0 0.0 0.00 0.42 0.42 88 1012.1
20260905212825 78 308 0.0 0.0 0.00 0.42 0.42 89 1012.2
20260905212324 77 321 0.9 0.9 0.00 0.42 0.42 89 1012.1
20260905211819 78 108 0.0 1.7 0.00 0.42 0.42 88 1012.1
20260905211314 77 220 0.0 0.9 0.00 0.42 0.42 89 1012.2
20260905210811 76 317 0.9 2.6 0.00 0.42 0.42 96 1012.5
20260905210310 75 298 0.0 0.9 0.00 0.42 0.42 99 1012.3
20260905205809 75 247 0.0 0.9 0.00 0.42 0.42 99 1012.3
20260905205306 75 253 0.0 0.0 0.00 0.42 0.42 99 1012.5
20260905204803 74 276 0.9 0.9 0.00 0.42 0.42 99 1012.4
20260905204300 74 288 0.0 0.9 0.00 0.42 0.42 99 1012.3
20260905203758 74 278 0.0 0.0 0.00 0.42 0.42 99 1012.5
20260905203254 73 258 0.0 0.0 0.00 0.42 0.42 99 1012.3
20260905202750 73 251 0.0 0.0 0.00 0.42 0.42 99 1012.2
20260905202244 73 249 0.0 0.9 0.00 0.42 0.42 99 1012.0
20260905201740 74 230 0.0 0.9 0.00 0.42 0.42 99 1012.2
20260905201235 73 228 0.0 0.9 0.00 0.42 0.42 99 1012.0
20260905200730 74 237 0.0 0.0 0.00 0.42 0.42 99 1011.8
20260905200226 73 250 0.0 0.0 0.00 0.42 0.42 99 1012.2
20260905195218 73 284 0.0 0.0 0.00 0.42 0.42 99 1012.3
20260905194714 73 286 0.0 0.0 0.00 0.42 0.42 99 1012.4
20260905194214 74 255 0.0 0.0 0.00 0.42 0.42 99 1012.7
20260905193708 74 260 0.0 0.0 0.00 0.42 0.42 99 1012.7